Location: Sternwarte Stuttgart
(48.7670°N, 9.1830°E)
Time: 19:40:40
(UTC+02:00)

Daily predictions for brighter satellites

Satellite Brightness Start Highest point End
(mag) Time Altitude Azimuth Time Altitude Azimuth Time Altitude Azimuth
Cosmos 2344 4.3 21:57:00 10° SW 22:04:49 69° NW 22:14:21 10° NE
ERS-1 Rocket 4.2 22:03:35 10° SSW 22:08:18 40° W 22:13:04 10° NNW
H-2A R/B 3.2 22:05:52 10° S 22:10:13 46° W 22:14:35 10° NNW
CZ-4C R/B 4.3 22:09:12 10° SE 22:12:11 27° ENE 22:15:09 10° N
Cosmos 1777 Rocket 4.0 22:08:54 10° S 22:14:07 66° ESE 22:19:21 10° NNE
SPOT 5 3.1 22:10:52 10° S 22:15:23 68° WSW 22:20:12 10° NNW
ARGOS 3.4 22:10:42 10° SSE 22:16:00 61° ENE 22:21:21 10° N
MetOp-A 4.3 22:11:09 10° SSE 22:16:31 84° WSW 22:21:55 10° NNW
Cosmos 1328 4.3 22:13:27 10° SSE 22:17:10 40° E 22:20:53 10° NNE
Cosmos 2058 3.7 22:18:55 10° SSE 22:22:38 34° E 22:26:23 10° NNE
Cosmos 2219 4.0 22:17:55 10° SSE 22:22:58 33° ESE 22:28:03 10° NE
H-2A R/B 2.9 22:18:37 10° SE 22:23:31 39° ENE 22:28:33 10° N
Cosmos 1455 4.5 22:21:59 10° NE 22:23:40 12° ENE 22:25:20 10° E
Cosmos 2322 3.9 22:21:16 10° NNW 22:27:01 77° WSW 22:32:42 10° SSE
Cosmos 2237 Rocket 3.6 22:25:06 10° NNW 22:30:00 28° NE 22:34:53 10° ESE
YAOGAN 6 2.9 22:28:55 10° S 22:32:33 67° WSW 22:36:11 10° NNW
Cosmos 2322 Rocket 3.9 22:28:33 10° NW 22:33:10 27° WSW 22:37:47 10° SSW
Cosmos 405 3.9 22:31:09 10° NNW 22:34:41 48° W 22:38:10 10° S
Cosmos 1500 Rocket 4.5 22:31:05 10° SSW 22:35:20 51° WNW 22:39:40 10° N
SPOT 1/Viking Rocket 3.6 22:30:18 10° SSE 22:35:27 82° WSW 22:40:39 10° NNW
Cosmos 2315 Rocket 4.0 22:29:40 10° N 22:35:56 85° E 22:42:08 10° S
Cosmos 1680 Rocket 3.7 22:32:50 10° NNW 22:38:03 70° WSW 22:43:16 10° SSE
SL-08 RB Rocket 3.7 22:36:13 10° SSE 22:40:42 81° ENE 22:45:12 10° NNW
SL-16 R/B 4.0 22:37:43 10° NW 22:42:14 25° WSW 22:46:45 10° SSW
USA 234 4.5 22:36:19 10° ENE 22:42:26 44° N 22:48:33 10° WNW
Cosmos 2242 Rocket 4.2 22:38:28 10° N 22:42:44 44° ENE 22:46:32 13° SE
Cosmos 1437 2.7 22:41:03 10° S 22:44:21 89° ENE 22:47:40 10° NNE
USA 229 DEB 3.7 22:37:37 10° SW 22:44:33 81° SE 22:51:36 10° NE
Cosmos 2360 Rocket 2.7 22:39:04 10° NW 22:44:36 56° WSW 22:50:06 10° S
USA 229 3.7 22:37:43 10° SW 22:44:39 81° SE 22:51:42 10° NE
IGS 5A 4.2 22:41:31 12° SE 22:45:05 40° ENE 22:49:01 10° N
Cosmos 2266 Rocket 4.3 22:40:20 10° SSW 22:46:37 71° W 22:52:51 10° N
SL-14 R/B 3.8 22:43:33 11° SSE 22:47:05 41° E 22:50:53 10° NNE
DELTA 2 DEB (DPAF) 4.2 22:45:00 11° SSE 22:49:15 78° ENE 22:53:46 10° NNW
NOAA 11 4.3 22:44:22 10° SSE 22:49:48 79° WSW 22:55:18 10° NNW
Cosmos 1271 Rocket 3.3 22:47:21 10° N 22:51:01 42° ENE 22:53:56 15° SE
Meteor 1-11 4.4 22:45:30 10° S 22:51:09 59° E 22:56:47 10° NNE
CZ-4B R/B 3.7 22:46:27 10° NNE 22:51:47 87° WNW 22:57:01 10° SSW
Cosmos 1898 Rocket 4.2 22:52:23 11° SSE 22:56:53 36° ESE 23:01:36 10° NE
USA 245 4.0 22:56:58 10° SSW 22:59:20 27° W 23:01:28 10° NW
Cosmos 1726 2.1 22:56:50 10° N 23:00:37 86° E 23:03:44 15° S
Landsat 7 3.9 22:59:29 13° SSE 23:03:47 85° WSW 23:08:35 10° NNW
NOSS 3-1 (A) 4.1 22:59:02 10° S 23:04:21 35° ESE 23:10:12 10° NE
Cosmos 1862 Rocket 4.5 23:01:39 10° N 23:05:42 35° ENE 23:08:40 16° SE
SAR-Lupe-2 3.7 23:05:35 18° SSE 23:08:09 65° ENE 23:11:44 10° N
Nadezhda 1 Rocket 4.2 23:03:06 10° N 23:09:05 57° ENE 23:13:56 16° SSE
Iridium 2 4.1 23:08:23 17° SSE 23:11:01 47° E 23:14:45 10° NNE
Meteor 2-10 4.4 23:05:31 10° N 23:11:11 68° ENE 23:15:45 16° SSE
Spot 4 4.0 23:08:03 16° SSE 23:11:52 68° ENE 23:16:43 10° N
CARTOSAT-1 3.5 23:08:48 16° SSE 23:12:15 88° ENE 23:16:36 10° NNW
Cosmos 2227 Rocket 3.4 23:10:41 16° SE 23:13:35 23° ESE 23:17:56 10° NE
Cosmos 2333 Rocket 2.6 23:08:53 10° NNW 23:14:34 58° ENE 23:19:11 16° SE
Cosmos 292 Rocket 3.8 23:12:02 10° NNW 23:16:50 81° ENE 23:20:18 19° SSE
Cosmos 1633 Rocket 3.0 23:14:02 12° S 23:18:00 79° E 23:22:25 10° NNE
Sich 1 3.0 23:14:40 12° S 23:18:49 85° E 23:23:15 10° N
Terra 1.8 23:15:51 16° SSE 23:19:40 84° WSW 23:24:27 10° NNW
USA 32 4.1 23:14:38 10° N 23:19:57 87° W 23:24:20 15° S
SL-16 R/B 3.6 23:15:58 10° NNW 23:21:00 31° NE 23:26:00 10° ESE
SeaSat 1 3.1 23:19:18 14° SE 23:23:15 49° NE 23:28:02 10° NNW
Cosmos 1745 Rocket 4.1 23:18:38 14° S 23:24:02 65° E 23:30:10 10° NNE
CZ-4 R/B 4.4 23:19:36 10° N 23:24:32 61° WNW 23:29:21 10° SSW
COSMOS 2428 3.2 23:20:37 10° NW 23:26:09 53° WSW 23:30:32 16° S
ATLAS 2AS CENTAUR R/B 4.0 23:23:14 17° SSE 23:27:26 27° ESE 23:33:46 10° ENE
SL-08 R/B 4.5 23:21:41 12° S 23:27:29 79° E 23:33:47 10° NNE
CZ-4B R/B 4.0 23:29:54 10° E 23:31:07 11° ENE 23:32:20 10° NE
Cosmos 1805 Rocket 4.5 23:26:53 10° SSW 23:31:12 48° WNW 23:35:33 10° N
Spot 2 4.5 23:29:13 10° NNE 23:34:24 70° ESE 23:38:24 16° S
Cosmos 1300 4.4 23:33:17 10° NNW 23:36:37 28° W 23:39:57 10° SSW
Meteor 1-4 Rocket 3.3 23:34:54 10° NNW 23:38:35 49° W 23:41:03 19° SSW
ALOS 2 4.3 23:37:03 12° ESE 23:39:58 22° ENE 23:43:23 10° NNE
Cosmos 2297 Rocket 3.3 23:38:41 19° SE 23:41:11 27° ESE 23:45:50 10° NE
Cosmos 1626 2.4 23:40:55 26° SSE 23:42:45 51° E 23:46:26 10° NNE
COSMOS 2455 3.5 23:38:41 10° NNW 23:44:34 50° NE 23:49:38 14° ESE
Lacrosse 4 Rocket 2.9 23:41:42 10° NNW 23:45:39 32° NE 23:49:15 12° ESE
Cosmos 2298 Rocket 4.1 23:41:15 10° SSW 23:46:35 80° WNW 23:51:56 10° NNE
Cosmos 2181 Rocket 4.5 23:40:58 10° N 23:47:10 52° ENE 23:51:29 20° SE
ATLAS 3B R/B 3.2 23:40:08 10° NW 23:47:15 60° NE 23:53:21 13° ESE
Cosmos 2219 Rocket 2.3 23:42:18 10° NNW 23:47:53 69° WSW 23:51:32 22° SSE
Cosmos 1869 3.3 23:44:43 10° N 23:48:47 78° E 23:50:56 27° SSE
NOSS 3-1 (C) 3.4 23:46:33 10° SW 23:52:31 83° SE 23:59:15 10° NE
CZ-4C R/B 4.4 23:54:15 20° ESE 23:55:49 28° ENE 23:58:55 10° N
Cosmos 1346 3.0 23:55:17 36° S 23:56:22 77° E 23:59:25 10° NNE
